Wind_Speed
3 4 4 3 3 3 3 3 2 2 3 3 3 3 3 2 2 2 2 2 2 3 3 3 3 3 3 3 4 4 5 6 7 7 7 6 6 6 5 5 5 5 6
3 3 4 4 3 3 3 3 2 2 3 3 3 3 3 2 2 2 2 2 2 3 3 3 3 3 4 4 4 4 5 6 7 7 8 7 6 6 6 6 6 6 7
3 3 4 4 4 3 3 3 3 3 4 4 4 3 3 3 3 3 3 3 3 2 3 2 3 4 5 5 5 6 6 6 7 7 7 8 8 8 7 6 6 6 7
5 4 4 4 4 4 4 4 4 5 5 5 4 4 3 4 4 4 4 4 3 4 4 3 3 4 5 5 6 6 7 7 7 7 7 8 8 8 8 8 7 6 7
7 6 5 5 5 5 6 6 6 6 6 6 5 5 5 6 6 6 5 5 5 5 5 5 4 5 6 6 6 7 8 8 8 8 8 8 8 8 8 8 8 7 7
8 8 7 8 8 7 7 8 7 7 8 7 7 7 7 7 8 8 7 7 6 6 6 6 6 6 6 6 7 8 8 9 9 9 9 9 9 8 8 8 8 8 8
10 11 10 10 10 9 9 9 9 9 9 9 8 8 8 8 9 9 9 8 8 8 8 8 7 7 7 8 8 9 10 10 10 10 9 9 9 8 9 9 9 8 9
12 12 12 12 12 12 11 10 10 11 11 11 10 10 10 9 9 9 10 10 10 10 9 9 9 9 9 10 10 11 11 11 11 10 10 10 9 9 10 9 9 9 9
14 14 14 14 13 13 12 12 12 13 13 13 13 12 11 11 10 10 11 11 11 11 10 10 11 11 11 12 12 12 13 13 12 11 11 11 10 10 10 10 10 10 10
16 16 16 15 14 14 13 12 13 14 14 14 14 13 12 11 11 11 11 12 12 12 12 12 12 13 13 14 14 14 14 14 14 12 12 11 10 10 11 12 12 12 12
18 17 17 17 17 16 15 14 15 15 16 15 15 15 14 13 13 13 14 13 13 13 14 14 14 15 15 15 15 15 15 15 15 13 12 12 11 11 12 13 14 14 14
18 17 17 18 18 17 17 17 17 16 16 16 16 16 16 16 15 15 15 15 15 15 16 16 16 16 16 16 16 16 16 15 15 14 14 13 13 13 14 15 15 16 16
18 18 19 19 19 19 18 18 18 17 17 17 17 17 17 17 17 16 16 16 16 17 17 18 18 17 18 18 17 17 17 17 17 16 16 15 16 16 16 17 17 17 17
20 20 21 21 21 21 20 19 19 18 18 19 18 18 18 18 18 18 17 17 17 18 18 19 19 18 18 18 18 18 18 18 18 18 18 17 17 17 18 18 19 19 19
22 22 21 21 22 22 21 21 20 20 19 20 20 20 19 19 19 19 18 19 19 18 19 20 20 19 19 19 20 20 20 20 20 20 19 19 19 19 20 20 20 20 21
21 21 22 22 23 23 22 21 20 20 20 21 21 21 21 21 20 20 20 20 20 20 20 21 21 20 21 21 22 22 21 21 21 21 20 20 20 20 21 22 21 21 20
22 22 23 24 24 24 23 22 21 21 21 21 22 21 21 21 21 21 22 21 22 22 22 22 22 22 23 23 23 23 23 23 23 23 23 23 22 22 23 23 23 22 22
24 24 24 25 25 24 24 23 22 22 22 21 21 21 22 22 22 23 23 23 24 24 23 24 23 24 24 25 25 25 25 25 24 24 24 24 23 23 23 24 23 24 23
26 25 25 25 25 24 23 23 23 22 22 22 22 23 23 23 23 24 25 25 25 25 26 25 25 25 25 26 26 25 26 26 26 25 25 25 25 24 24 24 24 24 25
28 28 27 26 25 24 23 23 24 24 24 24 24 24 24 25 25 25 26 26 26 26 26 27 27 27 27 27 27 26 26 26 26 26 26 26 25 26 26 26 26 26 26
29 29 28 27 27 26 25 25 25 25 26 26 27 26 27 27 27 27 27 27 27 27 27 28 28 29 29 29 28 28 27 27 27 27 27 26 26 27 27 28 28 27 27
28 28 28 28 27 27 27 26 27 27 27 27 28 28 29 28 28 28 28 28 29 29 28 28 29 29 29 29 29 29 29 29 28 28 28 28 28 28 29 29 29 28 28
28 28 28 27 28 28 27 27 27 28 28 28 28 28 29 30 29 29 29 29 29 29 28 29 29 29 29 29 29 29 29 30 29 29 29 29 29 29 29 29 29 29 29
27 27 27 26 26 26 28 28 28 29 29 29 29 30 30 30 30 30 30 30 29 29 29 28 28 28 28 28 28 29 29 29 29 28 28 29 29 29 29 28 28 28 28
27 27 26 27 27 27 27 27 28 28 28 28 29 30 31 30 31 30 30 30 29 29 29 28 28 28 28 27 27 27 27 28 28 28 28 28 28 28 28 28 28 28 27
26 27 27 28 29 29 28 27 27 27 27 28 30 30 30 30 30 30 30 30 29 28 27 28 28 27 27 26 27 26 27 27 28 27 27 27 27 28 28 27 28 28 27
Wind_Direction
7 14 9 359 356 0 5 355 356 1 16 21 26 23 19 34 21 10 2 358 2 356 356 3 358 354 349 350 352 355 357 357 356 355 351 349 348 344 335 322 318 314 312
350 352 346 345 339 334 341 344 336 331 344 354 5 5 1 358 360 356 343 343 345 342 345 1 2 1 357 348 348 347 346 346 348 350 352 348 341 339 340 332 324 318 315
316 321 333 330 331 327 319 322 317 313 312 318 334 335 337 330 323 319 319 319 319 319 323 334 350 348 347 343 341 339 339 338 336 338 342 342 339 340 341 331 325 323 319
292 295 305 304 308 307 301 299 301 307 306 307 313 308 304 303 302 302 303 304 303 301 303 303 312 324 332 333 329 331 333 331 330 328 331 332 330 329 336 334 325 323 322
280 288 290 288 286 287 286 286 290 295 298 294 295 298 295 295 294 291 287 292 294 294 301 301 300 307 313 320 322 324 327 326 325 325 325 327 325 324 327 332 327 321 318
272 274 275 278 279 276 276 279 284 284 289 289 289 292 293 289 288 287 286 278 277 279 285 293 298 303 308 315 316 318 319 318 318 319 321 320 319 321 323 329 324 324 320
272 270 270 272 276 277 275 277 279 280 283 285 286 287 286 285 282 278 280 276 272 273 278 285 290 293 298 307 311 311 312 311 312 312 315 315 313 313 314 322 323 321 318
274 275 272 271 273 273 272 272 276 280 280 279 278 278 278 279 281 278 275 276 275 273 272 278 283 287 292 298 302 306 308 308 308 307 308 310 308 306 310 313 314 316 318
270 273 274 273 273 273 273 270 272 278 278 276 272 270 271 273 277 278 275 274 274 274 272 279 281 282 286 291 295 298 301 302 301 299 299 301 302 304 306 306 307 310 310
272 271 273 274 274 273 275 274 273 274 277 276 277 273 271 273 274 276 276 276 275 273 274 279 281 284 287 289 290 294 296 296 296 297 295 295 297 299 300 302 302 305 309
271 270 273 275 274 272 273 275 274 273 275 274 273 271 273 276 276 276 276 277 275 273 274 275 279 281 286 289 292 294 294 297 297 295 293 291 291 295 296 297 297 299 301
272 272 273 274 276 274 272 272 272 272 270 269 267 268 272 274 274 277 277 277 278 277 276 276 278 281 283 285 287 289 291 294 293 290 287 287 286 289 291 293 295 297 298
276 276 275 275 275 275 272 272 270 267 266 267 267 268 271 273 275 275 275 276 277 278 277 277 277 278 280 282 284 286 288 288 288 286 283 283 285 287 288 289 291 294 295
274 275 276 276 276 275 274 272 268 267 267 267 270 270 272 274 277 276 273 274 275 275 277 279 277 275 276 279 282 284 285 284 285 283 281 281 283 285 287 288 289 291 294
273 274 277 278 277 275 275 273 270 270 270 271 274 275 275 275 275 274 274 275 277 278 279 278 278 274 273 276 278 281 282 281 282 284 282 281 282 283 285 287 289 291 294
275 274 276 279 277 275 275 273 271 272 273 273 274 275 276 276 276 277 277 277 277 278 279 279 278 275 275 275 277 279 279 278 278 281 281 280 282 281 283 284 286 289 290
275 276 276 276 274 273 272 272 269 270 273 274 274 275 275 275 277 278 279 280 279 277 277 278 278 277 276 276 275 275 275 275 275 276 278 279 280 281 282 283 283 285 287
273 275 276 275 273 271 270 270 269 269 271 272 273 274 274 274 276 277 279 279 278 277 277 276 275 276 276 276 275 275 274 274 274 275 276 278 279 281 282 283 283 282 283
272 274 274 274 272 268 267 268 270 271 271 272 271 272 274 275 277 278 278 278 279 279 279 277 275 275 276 276 274 274 274 273 272 274 277 279 280 281 282 281 281 281 282
272 273 272 271 269 266 266 268 270 272 272 272 272 274 275 277 279 278 280 279 278 278 278 277 276 275 276 276 277 274 273 274 273 276 277 278 279 281 283 282 282 282 282
273 272 271 270 270 267 267 268 270 271 273 274 273 273 273 275 277 279 281 281 280 278 277 277 277 277 275 274 275 274 273 274 275 276 277 278 279 282 283 283 284 284 283
273 272 270 268 266 266 267 270 272 272 273 273 273 274 274 275 277 279 280 280 280 280 278 277 276 276 274 272 272 273 273 274 275 276 277 278 279 282 283 283 282 283 284
272 269 268 268 265 266 266 269 270 272 274 274 273 275 277 276 276 277 278 279 280 280 280 278 274 274 273 273 272 271 270 271 272 274 275 277 279 281 281 282 282 282 283
271 267 266 267 270 268 268 270 270 272 275 276 277 277 279 277 275 276 278 279 279 280 280 279 276 273 273 274 274 272 271 270 272 274 276 277 278 280 279 280 282 283 283
266 265 266 270 272 272 271 271 272 273 274 277 280 279 279 278 278 277 278 279 279 279 279 278 277 275 273 274 274 272 272 272 272 274 277 278 277 279 279 279 280 282 283
265 266 268 270 272 275 274 274 276 278 279 279 279 281 282 282 283 281 280 280 279 278 276 277 277 276 274 273 272 272 272 273 274 276 278 279 279 280 280 281 282 282 283
Height
5896 5896 5895 5895 5894 5894 5893 5893 5893 5893 5892 5892 5892 5891 5891 5891 5891 5890 5890 5889 5889 5888 5888 5887 5887 5886 5886 5885 5885 5884 5883 5882 5880 5879 5878 5877 5876 5875 5874 5873 5873 5872 5871
5896 5895 5895 5894 5894 5893 5893 5893 5892 5892 5892 5891 5891 5891 5891 5891 5890 5890 5889 5889 5888 5888 5887 5887 5886 5886 5885 5884 5884 5883 5882 5881 5880 5879 5878 5877 5876 5874 5873 5872 5872 5871 5870
5895 5894 5894 5894 5893 5893 5892 5892 5892 5892 5891 5891 5891 5890 5890 5890 5890 5889 5889 5888 5888 5887 5887 5886 5886 5885 5884 5884 5883 5882 5881 5881 5880 5878 5877 5876 5875 5874 5873 5871 5870 5869 5869
5893 5893 5893 5893 5892 5892 5891 5891 5891 5891 5890 5890 5890 5890 5889 5889 5889 5889 5888 5887 5887 5886 5886 5885 5885 5884 5884 5883 5882 5881 5880 5879 5878 5877 5876 5875 5874 5873 5872 5870 5869 5868 5867
5892 5891 5891 5891 5891 5890 5890 5890 5890 5889 5889 5889 5889 5888 5888 5888 5888 5887 5887 5886 5886 5885 5885 5884 5883 5883 5882 5881 5881 5880 5879 5878 5877 5876 5875 5874 5872 5871 5870 5869 5868 5867 5866
5890 5890 5889 5889 5889 5888 5888 5888 5888 5888 5887 5887 5887 5886 5886 5886 5886 5885 5885 5884 5884 5883 5883 5882 5882 5881 5880 5880 5879 5878 5877 5876 5875 5874 5873 5872 5871 5870 5868 5867 5866 5865 5864
5888 5887 5887 5887 5886 5886 5886 5886 5886 5885 5885 5885 5884 5884 5884 5884 5883 5883 5882 5882 5881 5881 5881 5881 5880 5879 5879 5878 5877 5876 5875 5874 5874 5872 5871 5870 5869 5868 5867 5865 5864 5863 5863
5885 5885 5885 5885 5884 5883 5883 5883 5883 5883 5882 5882 5882 5881 5881 5881 5881 5880 5880 5879 5879 5879 5879 5878 5878 5877 5877 5876 5875 5874 5873 5872 5871 5870 5869 5868 5867 5866 5865 5864 5863 5862 5861
5882 5882 5882 5882 5881 5881 5880 5880 5879 5880 5879 5879 5879 5878 5878 5878 5878 5877 5877 5876 5876 5876 5876 5876 5875 5874 5874 5873 5872 5871 5870 5869 5869 5867 5866 5865 5864 5863 5862 5861 5861 5860 5858
5879 5879 5878 5878 5878 5877 5877 5876 5876 5876 5876 5876 5875 5876 5875 5875 5875 5874 5874 5874 5873 5873 5873 5873 5872 5871 5871 5870 5869 5868 5867 5866 5865 5864 5863 5862 5861 5860 5859 5858 5857 5856 5855
5875 5875 5875 5874 5874 5874 5873 5873 5873 5872 5872 5872 5872 5872 5872 5872 5871 5871 5871 5870 5870 5870 5869 5869 5868 5868 5867 5866 5866 5865 5864 5863 5862 5861 5860 5859 5858 5858 5856 5855 5854 5853 5851
5871 5871 5870 5870 5870 5869 5869 5869 5868 5868 5868 5868 5868 5868 5868 5867 5867 5867 5867 5866 5866 5866 5865 5865 5864 5864 5863 5862 5862 5861 5860 5858 5858 5857 5856 5855 5854 5854 5853 5852 5850 5849 5847
5866 5866 5866 5866 5865 5865 5865 5864 5864 5864 5864 5864 5864 5863 5863 5863 5863 5862 5862 5862 5861 5861 5860 5859 5859 5859 5858 5857 5857 5856 5855 5854 5853 5852 5851 5851 5850 5849 5848 5847 5846 5844 5843
5862 5861 5861 5861 5861 5860 5860 5859 5859 5858 5859 5859 5859 5859 5858 5858 5858 5857 5857 5856 5856 5856 5855 5854 5854 5853 5853 5852 5851 5851 5850 5849 5848 5847 5846 5846 5845 5844 5843 5842 5841 5839 5838
5856 5856 5856 5855 5855 5854 5854 5854 5854 5853 5853 5853 5853 5853 5853 5852 5852 5852 5852 5851 5850 5850 5849 5848 5847 5847 5847 5846 5845 5845 5844 5843 5842 5841 5840 5840 5839 5839 5838 5836 5835 5834 5832
5850 5850 5850 5849 5849 5849 5848 5848 5848 5847 5847 5847 5847 5847 5847 5847 5846 5846 5845 5845 5844 5843 5843 5842 5841 5840 5840 5839 5839 5838 5838 5837 5836 5835 5834 5834 5833 5832 5831 5830 5829 5827 5826
5844 5844 5843 5843 5843 5842 5842 5841 5841 5841 5841 5841 5841 5841 5841 5840 5840 5839 5839 5838 5837 5837 5836 5835 5834 5834 5833 5832 5832 5831 5830 5830 5829 5829 5828 5827 5827 5826 5824 5823 5822 5821 5819
5838 5838 5837 5836 5835 5836 5835 5835 5835 5835 5834 5834 5834 5834 5834 5833 5833 5832 5832 5831 5830 5829 5829 5828 5827 5826 5825 5824 5823 5823 5823 5822 5822 5822 5821 5820 5819 5818 5817 5816 5815 5814 5813
5831 5831 5830 5829 5829 5829 5829 5829 5829 5829 5828 5827 5827 5827 5827 5826 5826 5825 5824 5823 5822 5821 5821 5820 5819 5818 5817 5816 5815 5815 5815 5814 5814 5813 5813 5812 5812 5811 5810 5809 5807 5806 5805
5824 5823 5823 5822 5822 5822 5822 5822 5822 5822 5822 5821 5820 5820 5819 5818 5818 5817 5816 5815 5814 5813 5812 5811 5810 5809 5809 5808 5807 5806 5806 5806 5806 5806 5805 5804 5804 5803 5802 5801 5800 5799 5797
5816 5815 5815 5815 5815 5815 5815 5814 5814 5814 5814 5813 5812 5812 5811 5810 5809 5808 5808 5806 5805 5804 5803 5802 5801 5800 5799 5799 5798 5798 5798 5797 5797 5797 5797 5796 5795 5795 5793 5792 5791 5790 5789
5808 5807 5807 5807 5807 5807 5807 5807 5807 5806 5805 5805 5804 5803 5802 5801 5800 5800 5799 5797 5796 5795 5794 5793 5792 5791 5790 5789 5789 5789 5789 5789 5788 5788 5788 5788 5787 5786 5785 5784 5783 5782 5780
5799 5799 5799 5799 5799 5798 5798 5798 5798 5797 5796 5796 5794 5793 5793 5792 5791 5790 5789 5788 5787 5786 5785 5783 5783 5782 5781 5780 5780 5779 5779 5779 5779 5779 5779 5779 5778 5777 5776 5775 5774 5773 5772
5791 5790 5790 5790 5790 5790 5790 5789 5789 5788 5787 5787 5785 5784 5783 5782 5781 5781 5780 5779 5777 5776 5775 5774 5773 5772 5772 5771 5771 5770 5770 5770 5770 5770 5770 5769 5769 5768 5767 5766 5765 5764 5763
5782 5782 5782 5783 5783 5781 5781 5780 5779 5778 5778 5777 5776 5775 5774 5773 5772 5771 5770 5769 5768 5767 5766 5765 5764 5763 5763 5763 5762 5762 5762 5762 5761 5761 5761 5761 5760 5759 5758 5757 5756 5755 5754
5774 5774 5774 5775 5774 5773 5772 5771 5770 5769 5768 5768 5767 5766 5765 5764 5762 5761 5760 5759 5759 5757 5756 5756 5755 5755 5755 5754 5754 5753 5753 5753 5753 5752 5753 5752 5751 5751 5750 5749 5747 5746 5745